Location: Newark
(30.1000°N, 109.4667°E)
Time: 01:15:47
(UTC+00:00)

Vanguard 1 Rocket - Pass Details

Date: 25 February 2020
Orbit: 650 x 4226 km, 34.3° (Epoch: 28 March)

Event Time Altitude Azimuth Distance (km) Brightness Sun altitude
Rises 12:59:56 0° 195° (SSW) 8,278 12.4 -31.5°
Reaches altitude 10° 13:10:00 10° 177° (S) 6,737 11.7 -33.6°
Enters shadow 13:18:09 15° 155° (SSE) 5,626 11.1 -35.3°
